[[{"header":{"parameterUnit":"m.s-1","parameterCategory":1,"la1":30.2991,"la2":30.254,"lo1":-89.0895,"lo2":-89.0444,"dy":0.0017,"dx":0.0017,"nx":28,"ny":28,"refTime":"2025-09-15T21:00:00:Z","depth":0,"parameterNumber":2,"parameterNumberName":"U-component_of_WINDS"},"data":[0,0,0,0,0,0,0,0,0,0,0,0,0,0,0,0,0,0,0,0,0,0,0,0,0,0,0,0,0,0,0,0,0,0,0,0,0,0,0,0,0,0,0,0,0,0,0,0,0,0,0,0,0,0,0,0,0,0,0.9109,0.9108,0,0.9061,0.9061,0.906,0.904,0.904,0.9041,0.9041,0.8988,0.8987,0.8985,0,0,0,0,0,0,0,0,0,0,0,0,0,0.918,0.9179,0.9109,0.9108,0.9108,0.9061,0.906,0.906,0.904,0.904,0.9041,0.9041,0.8989,0.8987,0.8985,0,0,0,0,0,0,0,0,0,0,0,0,0,0.9142,0.9178,0.9109,0.9092,0.909,0.9061,0.906,0.906,0.904,0.904,0.9041,0.9041,0.8989,0.8987,0.8985,0.8968,0,0,0.8978,0.8977,0,0,0,0,0,0,0,0,0.9144,0.914,0.9095,0.9093,0.9091,0.9057,0.9066,0.9029,0.904,0.9059,0.9041,0.9041,0.9011,0.9007,0.8997,0.8965,0.8963,0.8978,0.8977,0.8976,0.8975,0,0,0,0,0,0,0,0.9147,0.9141,0.909,0.9095,0.9092,0.9086,0.9081,0.9059,0.9034,0.9058,0.9056,0.9051,0.901,0.9,0.8996,0.8962,0.8978,0.8976,0.8975,0.8974,0.8914,0.8913,0,0,0,0,0,0,0.9153,0.9144,0.9091,0.9088,0.9119,0.9085,0.9079,0.9068,0.9035,0.903,0.9051,0.905,0.9003,0.8999,0.8994,0.8972,0.8976,0.8974,0.8972,0.8914,0.8914,0.8913,0,0,0,0,0,0,0.9154,0.9148,0.9093,0.9116,0.9108,0.9083,0.9071,0.9067,0.9057,0.903,0.9025,0.9045,0.9003,0.8997,0.8975,0.897,0.8973,0.8971,0.8914,0.8914,0.8913,0.8927,0,0,0,0,0,0,0.9156,0.9149,0.9143,0.9116,0.9107,0.9076,0.907,0.9066,0.9053,0.9052,0.9023,0.9019,0.9003,0.8978,0.8973,0.8967,0.8969,0.8915,0.8914,0.8914,0.8927,0.8927,0.8927,0,0,0,0,0,0.9159,0.9148,0.9143,0.9136,0.9099,0.9075,0.907,0.9054,0.9053,0.9046,0.9029,0.9019,0.8971,0.8976,0.897,0.8963,0.8915,0.8914,0.8914,0.8927,0.8927,0.8927,0,0,0,0,0,0,0.9174,0.9144,0.9138,0.9118,0.9099,0.9072,0.9063,0.9055,0.9035,0.9035,0.9014,0.9007,0.8987,0.8972,0.8978,0.8944,0.8942,0.894,0.8954,0.8954,0.8955,0.8958,0.8967,0,0,0,0,0,0.9175,0.9159,0.9133,0.9118,0.9109,0.9088,0.9077,0.9066,0.9045,0.9037,0.9018,0.8998,0.8978,0.8965,0.8946,0.8925,0.8918,0.8917,0.8917,0.8917,0.8916,0.8903,0.8902,0.8911,0.8911,0.8911,0,0,0.9176,0.9158,0.9149,0.912,0.9105,0.9088,0.9081,0.9064,0.9051,0.9034,0.9012,0.8997,0.8973,0.8952,0.8941,0.8939,0.8912,0.8917,0.8917,0.8915,0.8902,0.8902,0.8901,0.8911,0.8911,0.8911,0,0,0.9171,0.9156,0.9141,0.9126,0.9103,0.9089,0.9086,0.906,0.905,0.9028,0.9015,0.8999,0.8965,0.8949,0.8936,0.8924,0.8915,0.8918,0.8919,0.8907,0.8907,0.8906,0.8901,0.89,0.8917,0.8917,0.8917,0,0.9175,0.9151,0.9135,0.9118,0.9105,0.9091,0.9076,0.9061,0.9033,0.9024,0.9023,0.8981,0.8963,0.8937,0.8935,0.8925,0.892,0.8921,0.8908,0.8907,0.8906,0.8902,0.89,0.8918,0.8918,0.8918,0.8918,0,0.9157,0.914,0.9131,0.9105,0.9092,0.9076,0.9057,0.9044,0.9035,0.9021,0.8998,0.8977,0.8953,0.8946,0.8935,0.8918,0.8917,0.8913,0.891,0.8906,0.8902,0.89,0.8919,0.8918,0.8918,0.8918,0,0,0.9159,0.9125,0.9122,0.911,0.9084,0.907,0.9053,0.9031,0.9021,0.9001,0.8986,0.8959,0.8954,0.8939,0.8927,0.8917,0.8909,0.8913,0.8912,0.8912,0.8888,0.8891,0.889,0.8902,0.8902,0.8902,0.8889,0,0.9149,0.912,0.9105,0.9082,0.9066,0.9052,0.9037,0.9019,0.9005,0.8989,0.8973,0.8954,0.8949,0.894,0.8929,0.8912,0.8903,0.8913,0.8887,0.8886,0.8893,0.8887,0.8891,0.888,0.8888,0.8887,0.8887,0,0.9134,0.9117,0.9092,0.9068,0.9061,0.9048,0.9026,0.9011,0.899,0.898,0.8965,0.8953,0.8934,0.8933,0.8906,0.8912,0.8901,0.8891,0.889,0.8886,0.8886,0.8883,0.8877,0.8875,0.8884,0.8884,0.8885,0,0.9138,0.9108,0.9089,0.9079,0.9051,0.9042,0.903,0.9009,0.8996,0.8977,0.8969,0.8947,0.8935,0.8918,0.89,0.8901,0.8874,0.8872,0.8865,0.8865,0.8859,0.886,0.8851,0.8853,0.8853,0.8853,0.8853,0,0.9129,0.9114,0.909,0.9079,0.9062,0.9044,0.9028,0.9014,0.8996,0.898,0.8967,0.8952,0.893,0.8913,0.8899,0.8878,0.8873,0.8864,0.886,0.8865,0.8866,0.8856,0.8857,0.8853,0.8853,0.8853,0.8853,0,0.9129,0.9113,0.9092,0.9067,0.906,0.9049,0.9027,0.9015,0.9001,0.8982,0.8976,0.8954,0.8932,0.8913,0.8885,0.8875,0.8854,0.885,0.8862,0.886,0.8853,0.8854,0.8837,0.8834,0.8839,0.8839,0.8839,0,0.9124,0.9113,0.9087,0.9077,0.9065,0.9048,0.9036,0.9018,0.9005,0.8981,0.8971,0.895,0.8931,0.8898,0.8878,0.8856,0.8851,0.8847,0.8847,0.8852,0.885,0.8851,0.8849,0.8847,0.8847,0.8847,0.8847,0,0.9117,0.911,0.9093,0.9073,0.9059,0.9043,0.9025,0.9017,0.8996,0.8983,0.8962,0.8948,0.8919,0.8897,0.8873,0.8859,0.8849,0.8847,0.8844,0.8848,0.8855,0.8851,0.8862,0.8847,0.8847,0.8847,0.8847,0.8847,0.9114,0.9103,0.9084,0.9066,0.9051,0.9036,0.9023,0.9008,0.8991,0.8967,0.8958,0.8936,0.8915,0.8882,0.8868,0.885,0.8848,0.8844,0.8842,0.8842,0.8842,0.8859,0.8845,0.8845,0.8845,0.8845,0.8845,0,0.9106,0.9093,0.9076,0.9054,0.9039,0.9032,0.9013,0.9001,0.8983,0.8964,0.8947,0.8923,0.8901,0.888,0.8858,0.8848,0.8842,0.8842,0.8842,0.8839,0.8846,0.885,0.8847,0.8847,0.8847,0.8847,0.8847,0.8847,0.91,0.9081,0.9072,0.9045,0.9032,0.9012,0.9002,0.8987,0.8972,0.8946,0.8929,0.8916,0.8896,0.8872,0.8852,0.8846,0.8838,0.884,0.8832,0.8839,0.8839,0.8839,0.8843,0.8838,0.8838,0.8827,0.8827,0.8827]},{"header":{"parameterUnit":"m.s-1","parameterCategory":1,"la1":30.2991,"la2":30.254,"lo1":-89.0895,"lo2":-89.0444,"dy":0.0017,"dx":0.0017,"nx":28,"ny":28,"refTime":"2025-09-15T21:00:00:Z","depth":0,"parameterNumber":3,"parameterNumberName":"V-component_of_WINDS"},"data":[0,0,0,0,0,0,0,0,0,0,0,0,0,0,0,0,0,0,0,0,0,0,0,0,0,0,0,0,0,0,0,0,0,0,0,0,0,0,0,0,0,0,0,0,0,0,0,0,0,0,0,0,0,0,0,0,0,0,0.3839,0.3839,0,0.3809,0.3809,0.3809,0.3808,0.3809,0.3809,0.3809,0.3776,0.3775,0.3773,0,0,0,0,0,0,0,0,0,0,0,0,0,0.3892,0.3891,0.3839,0.3839,0.3838,0.3809,0.3809,0.3809,0.3808,0.3809,0.3809,0.381,0.3776,0.3775,0.3773,0,0,0,0,0,0,0,0,0,0,0,0,0,0.3867,0.3891,0.3839,0.3835,0.3834,0.3809,0.3809,0.3808,0.3808,0.3809,0.3809,0.381,0.3777,0.3775,0.3773,0.375,0,0,0.3767,0.3766,0,0,0,0,0,0,0,0,0.3868,0.3865,0.3836,0.3835,0.3834,0.3813,0.3815,0.3789,0.3808,0.3818,0.3809,0.381,0.3788,0.3785,0.3778,0.3748,0.3747,0.3767,0.3766,0.3765,0.3765,0,0,0,0,0,0,0,0.387,0.3866,0.3827,0.3835,0.3834,0.3833,0.383,0.381,0.38,0.3817,0.3817,0.3814,0.3787,0.378,0.3777,0.3746,0.3767,0.3765,0.3764,0.3764,0.3695,0.3694,0,0,0,0,0,0,0.3873,0.3867,0.3828,0.3826,0.3853,0.3832,0.3828,0.3819,0.38,0.3798,0.3813,0.3814,0.3783,0.3779,0.3776,0.3747,0.3765,0.3763,0.3762,0.3695,0.3694,0.3694,0,0,0,0,0,0,0.3874,0.3869,0.3829,0.3847,0.3842,0.383,0.382,0.3818,0.3811,0.3797,0.3795,0.3808,0.3783,0.3778,0.3756,0.3745,0.3762,0.3761,0.3696,0.3695,0.3694,0.3688,0,0,0,0,0,0,0.3876,0.387,0.3862,0.3847,0.3841,0.3811,0.3819,0.3817,0.3808,0.3808,0.3791,0.3789,0.3783,0.3759,0.3754,0.3743,0.3759,0.3697,0.3696,0.3694,0.3689,0.3687,0.3685,0,0,0,0,0,0.3878,0.3861,0.3861,0.3857,0.383,0.3811,0.3807,0.3802,0.3807,0.3798,0.3789,0.3789,0.3747,0.3757,0.3751,0.3739,0.3698,0.3696,0.3694,0.369,0.3687,0.3685,0,0,0,0,0,0,0.3874,0.3859,0.3859,0.3837,0.3825,0.3811,0.3799,0.3799,0.3784,0.3785,0.3778,0.3774,0.3752,0.3743,0.3754,0.3715,0.3723,0.372,0.3722,0.3719,0.3717,0.3719,0.3758,0,0,0,0,0,0.3871,0.3857,0.3844,0.3826,0.382,0.3811,0.3802,0.3799,0.3786,0.378,0.377,0.3756,0.3739,0.3729,0.3713,0.3688,0.3684,0.3677,0.3675,0.3674,0.3671,0.3656,0.3653,0.3688,0.3688,0.3688,0,0,0.3864,0.3854,0.3845,0.3825,0.3815,0.38,0.3806,0.379,0.3778,0.3777,0.3756,0.3747,0.3732,0.3708,0.3697,0.37,0.366,0.3672,0.367,0.3669,0.3654,0.3651,0.3648,0.3687,0.3688,0.3688,0,0,0.3843,0.3835,0.3818,0.3808,0.3794,0.3788,0.3784,0.3769,0.3764,0.3742,0.3741,0.3726,0.3699,0.3687,0.3678,0.3652,0.3651,0.3647,0.3636,0.3622,0.3619,0.3617,0.3606,0.3603,0.3645,0.3645,0.3645,0,0.3836,0.3814,0.3809,0.3793,0.3784,0.3783,0.3766,0.3756,0.3737,0.373,0.3734,0.3699,0.3688,0.3661,0.3655,0.3648,0.3642,0.3649,0.362,0.3617,0.3615,0.3605,0.3602,0.3644,0.3645,0.3645,0.3645,0,0.3805,0.379,0.3778,0.376,0.375,0.3733,0.3725,0.3714,0.3712,0.3705,0.3682,0.367,0.3651,0.3644,0.3642,0.3616,0.3619,0.3622,0.3629,0.3611,0.3602,0.3598,0.3644,0.3644,0.3644,0.3644,0,0,0.3781,0.3761,0.3757,0.3749,0.3733,0.372,0.3703,0.3685,0.3676,0.3663,0.3647,0.3623,0.3626,0.3615,0.3611,0.3599,0.3578,0.3603,0.3602,0.3598,0.3548,0.3546,0.3542,0.3578,0.3577,0.3576,0.3549,0,0.3758,0.3728,0.3724,0.3697,0.3682,0.3681,0.3666,0.3654,0.3647,0.3632,0.3624,0.3607,0.3612,0.3605,0.3593,0.3583,0.3568,0.3585,0.3562,0.3561,0.3565,0.3537,0.3534,0.3509,0.3546,0.3545,0.3545,0,0.3727,0.3714,0.3686,0.3671,0.3665,0.3651,0.3635,0.3621,0.3607,0.3602,0.359,0.3588,0.3568,0.3577,0.355,0.3562,0.3552,0.3545,0.3544,0.3541,0.3551,0.3532,0.3501,0.3497,0.3539,0.354,0.354,0,0.3711,0.3686,0.3666,0.3659,0.3642,0.3632,0.3624,0.3611,0.36,0.3586,0.3578,0.3561,0.3551,0.3537,0.353,0.3537,0.3502,0.3511,0.3497,0.3497,0.3489,0.3489,0.3455,0.3484,0.3484,0.3484,0.3484,0,0.3685,0.3668,0.3659,0.3646,0.3627,0.3621,0.3601,0.3593,0.3581,0.3566,0.3564,0.355,0.3541,0.3525,0.3519,0.3496,0.3492,0.3487,0.3485,0.3487,0.3487,0.3479,0.3481,0.3483,0.3483,0.3484,0.3484,0,0.3664,0.3657,0.3635,0.3621,0.3617,0.3603,0.359,0.3577,0.357,0.3551,0.3546,0.3535,0.3516,0.3507,0.3484,0.3479,0.3453,0.3453,0.3459,0.3458,0.3444,0.3445,0.3403,0.3397,0.3431,0.343,0.343,0,0.3648,0.3635,0.3619,0.361,0.3602,0.3586,0.3576,0.357,0.3558,0.3541,0.353,0.3511,0.3496,0.3466,0.3454,0.3436,0.3435,0.3421,0.3432,0.3433,0.3433,0.3434,0.3432,0.3419,0.3419,0.3419,0.3418,0,0.3619,0.3617,0.3602,0.3587,0.3575,0.3562,0.3549,0.3541,0.3532,0.352,0.3501,0.3489,0.3465,0.3446,0.3427,0.3417,0.3416,0.3415,0.3411,0.3412,0.3415,0.3412,0.3452,0.3416,0.3416,0.3416,0.3417,0.3417,0.36,0.3588,0.3575,0.3559,0.3548,0.3536,0.3524,0.3515,0.35,0.3481,0.3478,0.3457,0.3442,0.3416,0.3406,0.3389,0.3392,0.3386,0.3385,0.3383,0.3382,0.3419,0.3386,0.3386,0.3386,0.3386,0.3386,0,0.357,0.3562,0.3547,0.353,0.3517,0.3518,0.3504,0.3492,0.3475,0.3461,0.3447,0.3424,0.3406,0.3393,0.3374,0.3363,0.3362,0.3358,0.3358,0.3356,0.3381,0.3386,0.3359,0.3359,0.3359,0.3359,0.3359,0.3359,0.3553,0.3533,0.3529,0.3503,0.3494,0.3475,0.3467,0.3455,0.3444,0.342,0.3405,0.3397,0.3384,0.3364,0.3346,0.3343,0.3335,0.3331,0.3328,0.3351,0.3354,0.3357,0.3362,0.333,0.333,0.3304,0.3304,0.3304]}]]